Terug naar catalogus

QIANFAN-8

ActiefCommunicatiePO
NORAD 60386·PAYLOAD·🇨🇳 China

Gelanceerd Aug 6, 2024 vanaf Taiyuan Satellite Launch Center

Loading…

Volgende Passages (komende 24 uur)

TLE

VersSource: Space-Track

Epoch: Sep 14, 2026, 14:15 UTC

1 60386U 24140H   26257.59375679  .00000016  00000-0  55430-5 0  9996
2 60386  88.9671 270.6418 0018492 117.9963 242.3062 13.51026032104593

Volg QIANFAN-8 in realtime met AllMySat

Download on the App Store